Location: Unspecified
(0.0000°N, 0.0000°E)
Time: 18:36:46
(UTC+00:00)

USA 238 DEB - Pass Details

Date: 30 May 2023
Orbit: 930 x 1283 km, 63.4° (Epoch: 27 September)

Event Time Altitude Azimuth Distance (km) Brightness Sun altitude
Rises 19:40:09 0° 233° (SW) 3,592 6.9 -23.7°
Reaches altitude 10° 19:43:28 10° 251° (WSW) 2,631 6.3 -24.4°
Maximum altitude 19:47:34 19° 294° (WNW) 2,067 6.0 -25.4°
Drops below altitude 10° 19:51:43 10° 337° (NNW) 2,647 6.3 -26.3°
Sets 19:55:06 0° 355° (N) 3,622 6.9 -27.1°
